Retour au catalogue

STARLINK-35929

ActifCommunicationsVLEO
NORAD 66625·PAYLOAD·🇺🇸 United States

Lancé Nov 23, 2025 depuis Vandenberg Space Force Base

Loading…

Prochains Passages (prochaines 24 heures)

TLE

FraisSource: CelesTrak SupGP

Époque: Sep 14, 2026, 22:49 UTC

1 66625C 25271J   26257.95118056  .00010312  00000+0  30465-3 0  2573
2 66625  53.1597 335.7159 0001243  76.0875 355.5109 15.34386999    19

Suivez STARLINK-35929 en temps réel avec AllMySat

Download on the App Store